Home > Weather > Tiraspol > Past weeks

Flag for Moldova Past Weather in Tiraspol, Moldova — Yesterday and Last 2 Weeks

Now
88 °F

Scattered clouds.


Feels Like: 88 °F
Forecast: 72 / 87 °F
Wind: 8 mph from Northeast

Location: Chisinau International Airport

Current Time: Jun 27, 2016 at 4:08:52 PM

Latest Report: Jun 27, 2016 at 3:30 PM


Visibility: N/A

Pressure: 29.83 "Hg

Humidity: 40%

Dew Point: 61 °F

Location of TiraspolLocation

Past Weather in Tiraspol — Graph

°F

Tiraspol Temperature Yesterday

Maximum temperature yesterday: 90 °F (at 2:30 PM)
Minimum temperature yesterday: 66 °F (at 3:30 AM)
Average temperature yesterday: 79 °F

High & Low Weather Summary for the Past Weeks

 TemperatureHumidityPressure
High93 °F (Jun 21, 3:00 PM)100% (Jun 13, 7:30 AM)30.21 "Hg (Jun 13, 7:30 AM)
Low57 °F (Jun 13, 4:00 AM)35% (Jun 25, 3:30 PM)29.47 "Hg (Jun 14, 2:00 PM)
Average75 °F74%29.96 "Hg
* Reported Jun 12 3:00 PM — Jun 27 3:00 PM, Tiraspol, Weather by CustomWeather, © 2016

Note: Actual official high and low records may vary slightly from our data, if they occured in-between our weather recording intervals... More about our weather records

Advertising

Tiraspol Weather History for the Previous 24 Hours

Scroll right to see more
 ConditionsComfort  
Time TempWeatherWind HumidityBarometerVisibility
3:00 PM
Mon, Jun 27
88 °FScattered clouds.8 mph40%29.83 "HgN/A
2:30 PM88 °FScattered clouds.6 mph40%29.83 "HgN/A
2:00 PM86 °FScattered clouds.5 mph46%29.83 "HgN/A
1:30 PM88 °FScattered clouds.7 mph40%29.86 "HgN/A
1:00 PM86 °FScattered clouds.6 mph46%29.86 "HgN/A
12:30 PM86 °FPassing clouds.6 mph49%29.86 "HgN/A
12:00 PM86 °FSunny.5 mph49%29.86 "Hg10 mi
11:30 AM84 °FPassing clouds.5 mph58%29.86 "HgN/A
11:00 AM84 °FSunny.3 mph55%29.86 "Hg10 mi
10:30 AM84 °FPassing clouds.6 mph55%29.89 "HgN/A
10:00 AM81 °FSunny.5 mph58%29.89 "Hg10 mi
9:30 AM81 °FPassing clouds.5 mph62%29.89 "HgN/A
9:00 AM79 °FPassing clouds.5 mph70%29.89 "HgN/A
8:30 AM77 °FSunny.2 mph69%29.89 "Hg10 mi
8:00 AM75 °FPassing clouds.5 mph74%29.89 "HgN/A
7:30 AM73 °FSunny.2 mph78%29.89 "Hg10 mi
7:00 AM70 °FClear.1 mph88%29.89 "Hg5 mi
6:30 AM70 °FClear.1 mph88%29.92 "Hg5 mi
6:00 AM66 °FClear.2 mph94%29.92 "Hg4 mi
5:30 AM66 °FClear.No wind94%29.92 "Hg4 mi
5:00 AM66 °FClear.No wind94%29.92 "Hg4 mi
4:30 AM66 °FFog.2 mph88%29.92 "Hg3 mi
4:00 AM66 °FClear.2 mph94%29.92 "Hg10 mi
3:30 AM68 °FClear.2 mph88%29.92 "Hg10 mi
3:00 AM68 °FClear.1 mph88%29.92 "Hg10 mi
2:30 AM70 °FClear.2 mph83%29.92 "Hg10 mi
2:00 AM72 °FClear.2 mph83%29.92 "Hg10 mi
1:30 AM73 °FClear.2 mph74%29.92 "Hg10 mi
1:00 AM75 °FClear.2 mph74%29.92 "Hg10 mi
12:30 AM72 °FClear.2 mph78%29.95 "Hg10 mi
12:00 AM73 °FClear.2 mph74%29.95 "Hg10 mi
11:30 PM
Sun, Jun 26
73 °FPassing clouds.5 mph65%29.95 "HgN/A
11:00 PM77 °FClear.2 mph54%29.95 "Hg10 mi
10:30 PM75 °FPassing clouds.3 mph61%29.95 "HgN/A
10:00 PM81 °FSunny.3 mph51%29.95 "Hg10 mi
9:30 PM79 °FSunny.5 mph54%29.95 "Hg10 mi
9:00 PM81 °FSunny.5 mph54%29.95 "Hg10 mi
8:30 PM84 °FSunny.6 mph45%29.95 "Hg10 mi
8:00 PM84 °FSunny.5 mph45%29.95 "Hg10 mi
7:30 PM86 °FPassing clouds.5 mph46%29.95 "HgN/A
7:00 PM88 °FSunny.5 mph40%29.95 "Hg10 mi
6:30 PM88 °FPassing clouds.5 mph40%29.95 "HgN/A
6:00 PM88 °FSunny.7 mph38%29.95 "Hg10 mi
5:30 PM88 °FPassing clouds.5 mph38%29.95 "HgN/A
5:00 PM86 °FSunny.7 mph40%29.98 "Hg10 mi
4:30 PM90 °FPassing clouds.8 mph38%29.98 "HgN/A
4:00 PM86 °FSunny.5 mph46%29.98 "Hg10 mi
Weather by CustomWeather, © 2016

See weather overviewHow to use our weather pages